Retour au catalogue

DMSP 5D-2 F13 DEB

ActifSSO
NORAD 40400·DEBRIS·🇺🇸 United States

Lancé Mar 24, 1995 depuis Vandenberg Space Force Base

Loading…

Prochains Passages (prochaines 24 heures)

TLE

FraisSource: Space-Track

Époque: Sep 14, 2026, 13:00 UTC

1 40400U 95015M   26257.54169488  .00001875  00000-0  51327-3 0  9997
2 40400  98.4640 286.8431 0131832  98.2014 263.4152 14.43333707604025

Suivez DMSP 5D-2 F13 DEB en temps réel avec AllMySat

Download on the App Store